Location: Cahas Mountain Overlook
(37.0833°N, 80.1000°W)
Time: 17:57:29
(UTC-05:00)

Vanguard 3 - Pass Details

Date: 06 December 2023
Orbit: 508 x 3239 km, 33.4° (Epoch: 23 February)

Event Time Altitude Azimuth Distance (km) Brightness Sun altitude
Rises 18:50:29 0° 210° (SSW) 7,154 12.6 -20.8°
Reaches altitude 10° 18:56:33 10° 201° (SSW) 5,972 11.9 -22.0°
Maximum altitude 19:10:24 29° 150° (SSE) 3,821 10.3 -24.7°
Enters shadow 19:15:15 24° 121° (ESE) 3,734 10.1 -25.7°
